SENTINEL-5P (42969 NORAD) Tracking and Keplerian Element Data

This shows tracking and keplerian element data for the satellite.

Feedback or suggestion? Click here.




ElementValue
Catalog42969
NameSENTINEL-5P
Epoch Orbit16955
Epoch Day20.55611853
Epoch Year2021
RAAN322.535
Inclination98.724
Eccentricity0.0001071
Argument of Perigee83.4789
Mean Anonmoly276.6509
Mean Motion14.1954941
Decay Rate-1.7E-07
L11 42969U 17064A 21020.55611853 -.00000017 00000-0 12739-4 0 9992
L22 42969 98.7240 322.5350 0001071 83.4789 276.6509 14.19549410169559

Live tracking and technical data element details for SENTINEL-5P (NORAD 42969). SENTINEL-5P can be tracked NOW for your location showing map with azimuth and elevation plus other details from your city location.

Track the satellite on the map from your city or location and see movement details for azimuth, elevation, latitude, longitude, range, height, and movement on the map or in text.







IsCatalogInMostPopularTable: catalog: 42969, numindb: 799
Update: records affected: 1



GetName: 42969 SENTINEL-5P

Hit Count: updated at: Sat, 23 Jan 2021 04:45:10 GMT